Regional Weather Roundup
Issued by NWS Jackson, KY

Home | Current Version | Previous Version | Text Only | Print | Product List | Glossary Off
Versions: 1 2 3 4 5 6 7 8 9 10 11 12 13 14 15 16 17 18 19 20 21 22 23 24 25 26 27 28 29 30 31 32 33 34 35 36 37 38 39 40 41 42 43 44 45 46 47 48 49 50

000
ASUS43 KJKL 030210
RWRJKL

EAST KENTUCKY HOURLY WEATHER ROUNDUP
NATIONAL WEATHER SERVICE JACKSON KY
900 PM EST FRI DEC 02 2016

NOTE: "FAIR" INDICATES FEW OR NO CLOUDS BELOW 12,000 FEET WITH
NO SIGNIFICANT WEATHER AND/OR OBSTRUCTIONS TO VISIBILITY.

* THESE REPORTS ARE NOT UNDER NWS QUALITY CONTROL AND MAY NOT
  REPORT WEATHER SUCH AS PRECIPITATION AND FOG.

KYZ079-080-083-085-087-088-110-112-115-119-120-030300
...EASTERN KENTUCKY...

CITY           SKY/WX    TMP DP  RH WIND       PRES   REMARKS
JACKSON        CLEAR     35  28  75 N3        30.29R
LONDON         CLEAR     38  28  67 N8        30.28R WCI  32
SOMERSET*      CLEAR     37  28  70 N7        30.31R WCI  32
MONTICELLO*    PTCLDY    39  30  70 N18       30.30R WCI  30
WILLIAMSBURG*  CLEAR     39  28  65 N5        30.28R
MIDDLESBORO*   PTCLDY    33  30  88 CALM      30.28R
HARLAN APT*    CLEAR     39  28  65 NW6       30.26S WCI  35
PIKE CO APT*   CLOUDY    35  29  79 NW5       30.28R WCI  31
MOREHEAD APT*  CLOUDY    37  27  65 NW3       30.32S
ASHLAND*       CLOUDY    39  28  65 W3        30.29R
$$

KYZ035-036-041-042-044-050-067-078-099-030300
...CENTRAL KENTUCKY...

CITY           SKY/WX    TMP DP  RH WIND       PRES   REMARKS
MT STERLING*   CLOUDY    37  30  75 CALM      30.32S
FLEMING/MASON* CLOUDY    37  29  72 W7        30.31S WCI  32
DANVILLE*      PTCLDY    32  30  93 CALM      30.31S
LEXINGTON      CLOUDY    40  29  64 N5        30.30S
FRANKFORT      CLOUDY    40  29  64 CALM      30.30S
LOUISVILLE     CLOUDY    43  28  55 NW10      30.32R
LEBANON*         N/A     37  28  70 CALM      30.32R
GLASGOW*       CLEAR     39  31  72 N6        30.32R
BOWLING GREEN  CLEAR     43  30  60 N3        30.33R
$$

KYZ091>093-OHZ055-061-077-WVZ005-015-034-035-042-030300
...SOUTHERN OHIO/WEST VIRGINIA...

CITY           SKY/WX    TMP DP  RH WIND       PRES   REMARKS
COVINGTON      CLOUDY    39  31  72 NW9       30.29S WCI  33
COLUMBUS       CLOUDY    38  31  76 W10       30.24R WCI  31
DAYTON         CLOUDY    36  31  82 W12       30.28R WCI  28
WILMINGTON     CLOUDY    37  31  78 W7        30.27S WCI  32
HUNTINGTON     CLOUDY    39  28  64 W6        30.29R WCI  35
CHARLESTON     CLOUDY    38  28  67 SW8       30.27S WCI  32
PINEVILLE*     CLOUDY    37  27  65 MISG      30.30R
BECKLEY        CLOUDY    31  25  78 NW13      30.21R WCI  21
BLUEFIELD      CLOUDY    31  26  82 NW12      30.19R WCI  22
LOGAN CO APT*  CLOUDY    36  27  69 N8        30.26R WCI  29
$$

VAZ002-007-008-TNZ017-027-036-066-071-030300
...SOUTHWEST VIRGINIA/EAST TENNESSEE...

CITY           SKY/WX    TMP DP  RH WIND       PRES   REMARKS
WISE*          CLEAR     34  28  80 CALM      30.23S
JONESVILLE*      N/A     34  28  80 CALM      30.27S
ABINGDON*      CLEAR     42  25  50 NW6       30.21S
BRISTOL        PTCLDY    37  27  67 SW3       30.23R
MORRISTOWN*    PTCLDY    43  30  61 CALM      30.24S
SEVIERVILLE*   CLEAR     36  30  80 CALM      30.25S
KNOXVILLE      MOCLDY    44  31  60 CALM      30.25S
OAK RIDGE      PTCLDY    44  30  57 CALM      30.27S
CROSSVILLE     PTCLDY    41  27  57 W5        30.27R
NASHVILLE      CLEAR     44  27  51 NW3       30.31R
$$

...KEY TO REMARKS...
VSB - VISIBILITY IN MILES
WCI - WIND CHILL INDEX
HX  - HEAT INDEX

$$



USA.gov is the U.S. government's official web portal to all federal, state and local government web resources and services.